TimeEDT,TemperatureF,Dew PointF,Humidity,Sea Level PressureIn,VisibilityMPH,Wind Direction,Wind SpeedMPH,Gust SpeedMPH,PrecipitationIn,Events,Conditions,WindDirDegrees,DateUTC
12:15 AM,28.4,8.6,43,29.87,10.0,NW,10.4,17.3,N/A,,Mostly Cloudy,310,2013-03-15 04:15:00
12:35 AM,28.4,8.6,43,29.87,10.0,NW,6.9,-,N/A,,Scattered Clouds,310,2013-03-15 04:35:00
12:55 AM,28.4,8.6,43,29.88,10.0,NW,15.0,20.7,N/A,,Scattered Clouds,310,2013-03-15 04:55:00
1:15 AM,28.4,8.6,43,29.88,10.0,NNW,11.5,17.3,N/A,,Mostly Cloudy,330,2013-03-15 05:15:00
1:35 AM,28.4,6.8,40,29.88,10.0,NW,9.2,-,N/A,,Mostly Cloudy,310,2013-03-15 05:35:00
1:55 AM,28.4,6.8,40,29.88,10.0,NW,12.7,18.4,N/A,,Partly Cloudy,320,2013-03-15 05:55:00
2:15 AM,28.4,6.8,40,29.88,10.0,NW,15.0,23.0,N/A,,Clear,310,2013-03-15 06:15:00
2:35 AM,26.6,6.8,43,29.88,10.0,NW,9.2,19.6,N/A,,Clear,320,2013-03-15 06:35:00
3:15 AM,26.6,5.0,40,29.88,10.0,NW,8.1,17.3,N/A,,Clear,320,2013-03-15 07:15:00
3:35 AM,26.6,6.8,43,29.88,10.0,NW,9.2,-,N/A,,Clear,320,2013-03-15 07:35:00
3:55 AM,26.6,6.8,43,29.88,10.0,NNW,4.6,-,N/A,,Clear,340,2013-03-15 07:55:00
4:35 AM,26.6,5.0,40,29.88,10.0,NW,5.8,17.3,N/A,,Clear,320,2013-03-15 08:35:00
4:55 AM,26.6,5.0,40,29.88,10.0,NW,8.1,16.1,N/A,,Clear,310,2013-03-15 08:55:00
5:15 AM,24.8,6.8,46,29.88,10.0,NW,10.4,-,N/A,,Clear,310,2013-03-15 09:15:00
5:45 AM,24.8,6.8,46,29.89,10.0,NNW,5.8,-,N/A,,Clear,330,2013-03-15 09:45:00
6:45 AM,24.8,8.6,50,29.91,10.0,NW,4.6,-,N/A,,Clear,310,2013-03-15 10:45:00
7:45 AM,23.0,8.6,54,29.90,10.0,Calm,Calm,-,N/A,,Clear,0,2013-03-15 11:45:00
8:45 AM,24.8,8.6,50,29.90,10.0,Calm,Calm,-,N/A,,Clear,0,2013-03-15 12:45:00
9:45 AM,26.6,10.4,51,29.90,10.0,West,6.9,-,N/A,,Clear,270,2013-03-15 13:45:00
10:45 AM,30.2,12.2,47,29.87,10.0,WSW,8.1,-,N/A,,Clear,240,2013-03-15 14:45:00
11:55 AM,33.8,14.0,44,29.74,10.0,West,8.1,-,N/A,,Scattered Clouds,260,2013-03-15 15:55:00
12:45 PM,35.6,12.2,38,29.80,10.0,WSW,8.1,-,N/A,,Scattered Clouds,250,2013-03-15 16:45:00
1:45 PM,37.4,15.8,41,29.77,10.0,West,11.5,20.7,N/A,,Mostly Cloudy,270,2013-03-15 17:45:00
2:45 PM,37.4,17.6,45,29.74,10.0,WSW,12.7,26.5,N/A,,Overcast,240,2013-03-15 18:45:00
3:45 PM,35.6,21.2,56,29.72,10.0,WSW,11.5,23.0,N/A,,Overcast,250,2013-03-15 19:45:00
4:45 PM,35.6,23.0,60,29.70,10.0,West,8.1,19.6,N/A,,Overcast,260,2013-03-15 20:45:00
5:45 PM,37.4,24.8,60,29.70,10.0,West,8.1,17.3,N/A,,Overcast,260,2013-03-15 21:45:00
6:45 PM,37.4,24.8,60,29.70,5.0,West,9.2,-,N/A,Snow,Light Snow Showers,270,2013-03-15 22:45:00
7:45 PM,37.4,26.6,65,29.72,10.0,West,9.2,17.3,N/A,,Overcast,280,2013-03-15 23:45:00
8:15 PM,35.6,26.6,70,29.72,10.0,West,11.5,-,N/A,,Scattered Clouds,280,2013-03-16 00:15:00
9:35 PM,35.6,26.6,70,29.72,10.0,West,9.2,16.1,N/A,,Clear,280,2013-03-16 01:35:00
9:55 PM,35.6,24.8,65,29.72,10.0,West,6.9,16.1,N/A,,Clear,280,2013-03-16 01:55:00
10:15 PM,35.6,24.8,65,29.73,10.0,West,8.1,-,N/A,,Clear,280,2013-03-16 02:15:00
10:35 PM,35.6,21.2,56,29.73,10.0,West,9.2,20.7,N/A,,Clear,280,2013-03-16 02:35:00
10:55 PM,35.6,21.2,56,29.72,10.0,West,11.5,18.4,N/A,,Clear,280,2013-03-16 02:55:00
11:15 PM,35.6,21.2,56,29.72,10.0,West,11.5,17.3,N/A,,Clear,280,2013-03-16 03:15:00
11:55 PM,35.6,21.2,56,29.73,10.0,WNW,5.8,17.3,N/A,,Clear,290,2013-03-16 03:55:00